Weather History for KRND - November, 2011

Change the Weather History Date:

Monday, November 28, 2011

  Actual Average Record
Temperature  
Mean Temperature 48 °F -  
Max Temperature 67 °F 65 °F 82 °F (2006)
Min Temperature 30 °F 47 °F 30 °F (2011)
Degree Days  
Heating Degree Days 16    
Moisture  
Dew Point 24 °F    
Average Humidity 46    
Maximum Humidity 75    
Minimum Humidity 18    
Precipitation  
Precipitation 0.00 in - - ()
Sea Level Pressure  
Sea Level Pressure 30.14 in    
Wind  
Wind Speed 4 mph (WNW)    
Max Wind Speed 9 mph    
Max Gust Speed -    
Visibility 10 miles    
Events      
Averages and records for this station are not official NWS values.
T = Trace of Precipitation, MM = Missing Value Source: NWS Daily Summary

Daily Weather History Graph

Daily Weather History Graph

Search for Another Location

Airport or City:

Trip Planner

Search our weather history database for the weather conditions in past years. The results will help you decide how hot, cold, wet, or windy it might be!

Date:

Astronomy

Nov. 28, 2011 Rise Set
Actual Time 7:07 AM CST 5:34 PM CST
Civil Twilight 6:42 AM CST 5:59 PM CST
Nautical Twilight 6:12 AM CST 6:29 PM CST
Astronomical Twilight 5:44 AM CST 6:57 PM CST
Moon 10:20 AM CST (11/28) 9:18 PM CST (11/28)
Length of Visible Light 11h 17m
Length of Day
10h 26m
Waxing Crescent, 16% of the Moon is Illuminated
Nov 28
Waxing Crescent
Dec 2
First Quarter
Dec 10
Full
Dec 17
Last Quarter
Dec 24
New

Hourly Weather History & Observations

Time (CST) Temp. Windchill Dew Point Humidity Pressure Visibility Wind Dir Wind Speed Gust Speed Precip Events Conditions
12:55 AM 39.0 °F 36.8 °F 19.0 °F 45% 30.27 in 10.0 mi West 3.5 mph - N/A   Clear
1:55 AM 32.0 °F 28.7 °F 23.4 °F 70% 30.26 in 10.0 mi NW 3.5 mph - N/A   Clear
2:55 AM 31.3 °F 25.6 °F 23.2 °F 72% 30.24 in 10.0 mi NNW 5.8 mph - N/A   Clear
3:55 AM 32.0 °F 26.4 °F 22.3 °F 67% 30.24 in 10.0 mi NNW 5.8 mph - N/A   Clear
4:55 AM 30.7 °F 22.6 °F 23.5 °F 75% 30.22 in 10.0 mi NNW 9.2 mph - N/A   Clear
5:55 AM 30.7 °F 23.3 °F 23.2 °F 74% 30.21 in 10.0 mi NNW 8.1 mph - N/A   Clear
6:55 AM 30.4 °F 22.2 °F 22.1 °F 71% 30.22 in 10.0 mi NW 9.2 mph - N/A   Clear
7:55 AM 35.2 °F 32.4 °F 22.1 °F 59% 30.22 in 10.0 mi WNW 3.5 mph - N/A   Clear
8:55 AM 46.0 °F 43.9 °F 19.8 °F 35% 30.22 in 10.0 mi SW 4.6 mph - N/A   Clear
9:55 AM 53.6 °F - 19.4 °F 26% 30.29 in 10.0 mi SSW 2.3 mph - N/A   Clear
10:55 AM 56.1 °F - 17.2 °F 22% 30.20 in 10.0 mi Calm Calm - N/A   Clear
11:55 AM 60.1 °F - 19.0 °F 20% 30.17 in 10.0 mi Calm Calm - N/A   Clear
12:55 PM 62.2 °F - 21.2 °F 21% 30.12 in 10.0 mi Calm Calm - N/A   Clear
1:55 PM 64.9 °F - 21.6 °F 19% 30.09 in 10.0 mi SSE 8.1 mph - N/A   Clear
2:55 PM 66.4 °F - 21.0 °F 18% 30.06 in 10.0 mi SSW 3.5 mph - N/A   Clear
3:55 PM 67.6 °F - 22.6 °F 18% 30.04 in 10.0 mi SSW 5.8 mph - N/A   Clear
4:55 PM 66.2 °F - 23.7 °F 20% 30.04 in 10.0 mi SSW 4.6 mph - N/A   Clear
5:55 PM 58.8 °F - 28.2 °F 31% 30.04 in 10.0 mi Calm Calm - N/A   Clear
6:55 PM 55.0 °F - 27.0 °F 34% 30.04 in 10.0 mi Calm Calm - N/A   Clear
7:55 PM 54.3 °F - 25.2 °F 32% 30.03 in 10.0 mi SSW 3.5 mph - N/A   Clear
8:55 PM 46.2 °F 43.3 °F 34.9 °F 65% 30.04 in 10.0 mi NNW 5.8 mph - N/A   Clear
9:55 PM 45.1 °F 42.8 °F 33.4 °F 64% 30.05 in 10.0 mi NNW 4.6 mph - N/A   Clear
10:55 PM 43.3 °F 39.9 °F 33.3 °F 68% 30.05 in 10.0 mi NNW 5.8 mph - N/A   Clear
11:55 PM 41.9 °F 39.0 °F 32.5 °F 69% 30.05 in 10.0 mi NW 4.6 mph - N/A   Clear